Location: Newark
(43.6583°N, 1.6617°E)
Time: 05:27:20
(UTC+00:00)

Vanguard 2 Rocket - Pass Details

Date: 21 August 2019
Orbit: 554 x 3327 km, 32.9° (Epoch: 19 September)

Event Time Altitude Azimuth Distance (km) Brightness Sun altitude
Exits shadow 02:49:53 25° 203° (SSW) 3,700 9.4 -21.6°
Maximum altitude 02:57:41 43° 151° (SSE) 3,453 9.6 -20.6°
Drops below altitude 10° 03:15:01 10° 90° (E) 6,246 11.9 -18.2°
Sets 03:20:25 0° 85° (E) 7,319 12.5 -17.4°
